User: anonymous   Login
Location: *
(37.5724°S, 58.0067°E)
Time: 19:34:04
(UTC+00:00)
Language:

Cosmos 1484 Rocket - Orbit

View from above orbital plane
View from above orbital plane
View from above satellite
View from above satellite

Ground track
Ground track

The orbit data is extracted from the following two-line orbital elements,

1 14208U 83075B   20333.12845194  .00000583  00000-0  37802-4 0  9993
2 14208  97.4148 311.5968 0040238 102.8121 257.7610 15.11236593 37740
Epoch (UTC): 28 November 2020 03:04:58
Eccentricity: 0.0040238
inclination: 97.4148°
perigee height: 504 km
apogee height: 560 km
right ascension of ascending node: 311.5968°
argument of perigee: 102.8121°
revolutions per day: 15.11236593
mean anomaly at epoch: 257.7610°
orbit number at epoch: 3774

The dashed part of the orbit path shows where the satellite is in the earth's shadow,  

DLR